[[{"header":{"parameterUnit":"m.s-1","parameterCategory":1,"la1":30.2992,"la2":30.254,"lo1":-89.0895,"lo2":-89.0443,"dy":0.0025,"dx":0.0025,"nx":19,"ny":19,"refTime":"2026-04-03T03:00:00:Z","depth":0,"parameterNumber":2,"parameterNumberName":"U-component_of_WINDS"},"data":[0,0,0,-4.3658,-4.3661,-4.3805,-4.3805,-4.3989,-4.399,0,0,0,0,0,0,0,0,0,0,0,-4.3616,-4.3617,-4.3657,-4.3661,-4.3804,-4.3805,-4.3988,-4.399,0,0,0,0,0,0,0,0,0,0,0,-4.3616,-4.3617,-4.3619,-4.3662,-4.3804,-4.3805,-4.3988,-4.3879,0,0,0,0,0,0,0,0,0,0,-4.374,-4.3703,-4.3617,-4.3619,-4.3662,-4.3804,-4.3805,-4.3874,-4.3886,-4.3924,0,-4.3959,0,-4.3978,-4.4003,-4.4003,0,0,0,-4.366,-4.3693,-4.3731,-4.3619,-4.3664,-4.3804,-4.3739,-4.3881,-4.3894,-4.394,-4.3962,-4.3968,-4.3981,-4.4004,-4.4005,-4.4229,-4.423,0,0,-4.3652,-4.3642,-4.3721,-4.374,-4.3719,-4.3735,-4.3744,-4.3889,-4.3911,-4.3962,-4.3973,-4.3984,-4.4005,-4.4006,-4.4228,-4.423,0,0,0,-4.363,-4.3637,-4.3671,-4.3732,-4.3758,-4.3739,-4.3749,-4.3905,-4.3917,-4.3975,-4.3986,-4.4006,-4.4008,-4.4227,-4.4229,-4.4273,0,0,0,-4.3625,-4.3624,-4.3668,-4.3663,-4.3756,-4.3834,-4.3762,-4.3907,-4.3924,-4.3985,-4.4006,-4.401,-4.4226,-4.4228,-4.4269,-4.4294,0,0,0,-4.3606,-4.3622,-4.3643,-4.3662,-4.3724,-4.3831,-4.3852,-4.3911,-4.3931,-4.4003,-4.4011,-4.4225,-4.4228,-4.4266,-4.4288,-4.4349,0,0,0,-4.3583,-4.368,-4.3644,-4.3756,-4.3723,-4.3859,-4.3851,-4.3953,-4.4021,-4.4007,-4.4226,-4.4229,-4.4264,-4.4285,-4.4345,-4.4395,-4.4417,0,0,-4.37,-4.3694,-4.3761,-4.3733,-4.3872,-4.3838,-4.3984,-4.4055,-4.4071,-4.4175,-4.4181,-4.427,-4.4288,-4.4348,-4.4543,-4.4559,0,0,0,-4.3794,-4.3842,-4.3882,-4.3946,-4.4004,-4.4055,-4.4105,-4.4131,-4.4221,-4.4123,-4.431,-4.4321,-4.4356,-4.4381,-4.4395,-4.4425,-4.4241,-4.424,-4.424,-4.3943,-4.3959,-4.4071,-4.4104,-4.4167,-4.4219,-4.4271,-4.4315,-4.4312,-4.4356,-4.4386,-4.4502,-4.4531,-4.4541,-4.4573,-4.4417,-4.4417,-4.4417,-4.4417,-4.4113,-4.4182,-4.4178,-4.4284,-4.43,-4.439,-4.4443,-4.4439,-4.4523,-4.4481,-4.4513,-4.4463,-4.4559,-4.4587,-4.4421,-4.442,-4.442,-4.4419,-4.4419,-4.4209,-4.4245,-4.4277,-4.4372,-4.4444,-4.4475,-4.4557,-4.4569,-4.4582,-4.4614,-4.4645,-4.4645,-4.4643,-4.4629,-4.4629,-4.4629,-4.463,-4.463,-4.463,-4.4295,-4.433,-4.4397,-4.4468,-4.4511,-4.457,-4.4624,-4.4666,-4.4716,-4.4719,-4.4719,-4.471,-4.4567,-4.4529,-4.4637,-4.4635,-4.4635,-4.4634,-4.4634,-4.4455,-4.4421,-4.4525,-4.4569,-4.4653,-4.4722,-4.4739,-4.4825,-4.4862,-4.4902,-4.4888,-4.4781,-4.4775,-4.4764,-4.4732,-4.4886,-4.4886,-4.4886,-4.4886,-4.4534,-4.4533,-4.4642,-4.4711,-4.478,-4.4806,-4.4922,-4.4965,-4.5004,-4.5028,-4.5009,-4.4969,-4.4957,-4.4958,-4.4943,-4.4913,-4.511,-4.511,-4.511,-4.4632,-4.4639,-4.4735,-4.4774,-4.4841,-4.4898,-4.5007,-4.5085,-4.5123,-4.5119,-4.5047,-4.5037,-4.4973,-4.4952,-4.4942,-4.4918,-4.4864,0,0]},{"header":{"parameterUnit":"m.s-1","parameterCategory":1,"la1":30.2992,"la2":30.254,"lo1":-89.0895,"lo2":-89.0443,"dy":0.0025,"dx":0.0025,"nx":19,"ny":19,"refTime":"2026-04-03T03:00:00:Z","depth":0,"parameterNumber":3,"parameterNumberName":"V-component_of_WINDS"},"data":[0,0,0,2.6575,2.6578,2.6696,2.6697,2.6843,2.6845,0,0,0,0,0,0,0,0,0,0,0,2.6537,2.6538,2.6575,2.6578,2.6696,2.6697,2.6843,2.6845,0,0,0,0,0,0,0,0,0,0,0,2.6537,2.6538,2.6539,2.6578,2.6696,2.6697,2.6843,2.6755,0,0,0,0,0,0,0,0,0,0,2.6641,2.6603,2.6538,2.6539,2.6579,2.6696,2.6697,2.6751,2.6761,2.6788,0,2.6812,0,2.6831,2.6854,2.6855,0,0,0,2.658,2.6595,2.663,2.6539,2.658,2.6696,2.6643,2.6756,2.6767,2.6801,2.6814,2.6819,2.6833,2.6855,2.6856,2.7011,2.7011,0,0,2.6573,2.6557,2.6622,2.6637,2.6619,2.6639,2.6647,2.6763,2.6776,2.6814,2.6823,2.6836,2.6856,2.6857,2.701,2.7011,0,0,0,2.6553,2.6552,2.6584,2.6631,2.6653,2.6643,2.6651,2.6771,2.6783,2.6825,2.6837,2.6857,2.6859,2.7009,2.701,2.7028,0,0,0,2.6549,2.6541,2.6581,2.6573,2.665,2.6713,2.6657,2.6775,2.6788,2.6837,2.6857,2.686,2.7009,2.701,2.7026,2.7039,0,0,0,2.6531,2.6539,2.6555,2.6572,2.6622,2.6712,2.673,2.6778,2.6796,2.6855,2.686,2.7008,2.701,2.7024,2.7036,2.7076,0,0,0,2.6506,2.6567,2.6555,2.6629,2.6621,2.6722,2.673,2.6805,2.6858,2.6858,2.7009,2.701,2.7024,2.7034,2.7074,2.7107,2.712,0,0,2.6575,2.6575,2.662,2.6613,2.6712,2.6705,2.6807,2.6869,2.6889,2.6969,2.6973,2.7027,2.7036,2.7076,2.7193,2.7203,0,0,0,2.6636,2.6669,2.6698,2.6749,2.6799,2.6843,2.6892,2.6916,2.6985,2.6927,2.7052,2.7058,2.7082,2.7099,2.7107,2.7129,2.7017,2.7017,2.7017,2.671,2.6734,2.681,2.6848,2.6897,2.6948,2.699,2.703,2.7037,2.7067,2.7091,2.7159,2.7178,2.7185,2.7208,2.711,2.711,2.711,2.711,2.6814,2.6863,2.6875,2.6953,2.6978,2.7043,2.7096,2.7099,2.7164,2.7143,2.7165,2.714,2.7195,2.7216,2.7112,2.7111,2.7111,2.7111,2.7111,2.6865,2.6893,2.6922,2.6999,2.7055,2.7092,2.7155,2.7174,2.7193,2.7215,2.7243,2.7243,2.7246,2.7227,2.7227,2.7228,2.7228,2.7228,2.7228,2.6907,2.6939,2.699,2.7051,2.7087,2.7137,2.719,2.7226,2.7271,2.728,2.7281,2.7286,2.7196,2.7173,2.7232,2.7231,2.7231,2.723,2.723,2.7004,2.6986,2.7064,2.7101,2.7175,2.7231,2.7256,2.7328,2.736,2.7391,2.7393,2.7322,2.7323,2.7317,2.7298,2.7387,2.7387,2.7387,2.7387,2.7047,2.7051,2.7137,2.7194,2.7253,2.7284,2.7373,2.7416,2.7458,2.748,2.747,2.7446,2.7439,2.7445,2.7436,2.7419,2.7536,2.7536,2.7536,2.7109,2.7119,2.7191,2.7233,2.7293,2.7344,2.7429,2.7494,2.7537,2.7542,2.7497,2.7491,2.7454,2.744,2.7443,2.7429,2.7398,0,0]}]]